GFSFLT1_500_spd_000.txt.gz
Wind_Speed
29 27 27 27 31 31 38 45 43 39 45 40 49 50 49 50 52 56 53 54 52 53 53 55 56 59 60 61 62 62 62 63
30 29 30 33 36 37 43 44 42 40 49 51 50 51 51 55 57 56 56 56 54 57 59 60 62 65 67 67 66 66 67 68
29 31 32 36 36 42 43 43 45 51 51 53 52 52 55 56 57 57 56 53 53 55 60 65 68 65 68 72 76 76 74 73
32 34 35 38 41 43 46 49 49 49 52 54 55 56 55 55 55 57 62 59 58 59 64 70 76 73 73 78 77 77 78 77
37 35 37 40 42 45 47 48 48 50 52 55 55 55 58 59 61 62 63 64 65 68 73 77 76 76 76 77 79 79 80 78
39 39 39 40 42 43 45 46 49 50 50 52 54 59 59 60 62 64 66 68 71 74 75 77 78 78 78 78 79 78 79 81
39 40 42 39 38 41 41 46 48 49 51 52 54 57 61 64 67 70 72 76 76 76 77 78 80 81 80 83 82 82 83 85
37 39 40 38 36 38 41 44 48 51 56 58 62 65 67 70 74 75 76 78 77 76 77 78 79 80 84 87 88 94 97 94
36 39 40 40 39 41 43 44 50 55 59 64 68 71 74 77 78 78 78 79 78 80 80 82 82 84 88 94 94 98 96 92
34 36 39 37 39 44 47 50 53 57 62 67 71 74 78 80 82 84 83 80 80 83 84 83 86 90 91 92 93 91 85 76
35 36 38 43 45 47 50 54 59 66 71 74 80 83 83 83 82 81 79 79 81 85 88 90 90 90 89 86 80 70 62 54
37 39 40 43 46 51 56 61 66 71 76 80 81 83 83 83 83 82 80 80 81 83 85 87 87 83 76 67 60 53 48 46
36 39 44 49 53 59 65 69 74 77 80 83 83 83 82 81 81 80 80 80 81 82 83 80 74 66 59 54 49 49 49 49
41 44 48 53 59 65 70 76 78 81 82 81 79 81 80 79 80 80 79 80 81 82 77 69 60 55 50 50 50 53 53 53
46 50 55 61 65 71 76 79 83 82 82 84 78 81 80 80 78 80 80 80 78 73 65 58 51 48 50 51 53 56 57 56
52 57 63 68 72 77 80 82 81 84 82 84 84 86 85 81 80 81 80 76 70 62 56 49 49 51 52 55 57 57 55 52
59 64 70 73 76 80 83 85 85 86 85 86 86 89 92 90 87 81 75 71 61 51 45 46 49 52 55 57 55 52 50 49
65 69 74 78 81 83 85 86 83 84 86 88 88 81 74 72 72 74 72 59 46 42 44 47 49 54 57 56 51 51 49 48
69 73 77 81 83 85 84 82 84 86 87 85 82 77 72 67 69 68 55 43 41 42 46 48 50 54 56 55 52 51 48 44

GFSFLT1_500_spd_003.txt.gz
Wind_Speed
27 29 28 29 28 31 40 42 40 41 39 42 46 47 49 52 52 52 52 52 53 56 56 56 56 56 59 62 63 61 63 64
31 31 33 33 32 39 44 43 44 46 49 42 41 53 52 55 55 53 53 55 57 56 56 58 60 60 61 64 66 69 72 74
29 31 34 34 37 42 46 45 46 47 42 46 49 48 54 56 54 54 56 57 60 62 65 65 65 66 67 70 72 74 75 77
29 31 34 38 41 43 45 47 48 48 47 47 50 53 51 51 54 56 58 61 63 66 68 71 74 75 75 75 76 77 77 75
30 33 38 41 42 41 42 44 46 46 48 46 50 51 53 54 58 60 63 64 67 71 74 77 79 80 80 81 79 78 77 77
38 34 34 35 36 37 39 39 39 41 44 47 50 52 56 58 61 65 68 71 75 78 79 80 81 82 81 81 80 80 80 79
41 40 36 35 34 36 39 40 42 43 45 47 50 53 58 62 65 68 72 76 79 78 81 82 82 81 81 81 81 80 81 83
43 45 42 35 33 35 36 39 42 47 50 54 57 62 67 70 74 77 79 81 82 83 83 83 83 83 82 82 83 85 87 88
44 42 42 38 35 34 37 39 41 45 51 56 61 66 71 72 76 79 80 80 80 80 81 81 83 83 83 83 85 87 89 90
34 33 34 34 34 36 40 44 49 55 61 66 72 76 79 81 82 82 81 80 80 81 82 81 81 83 84 84 85 85 83 77
33 34 36 39 42 45 47 53 59 65 69 73 76 79 82 84 81 80 82 83 82 83 83 82 82 83 83 82 78 71 64 57
31 33 37 41 45 49 55 61 66 70 73 77 80 82 84 84 80 81 82 82 81 81 78 78 78 75 71 67 62 55 49 47
33 37 40 45 49 54 59 64 69 72 75 78 80 82 81 82 81 81 82 81 77 73 74 70 68 65 61 56 48 44 46 49
39 42 44 47 53 57 63 67 71 76 80 83 85 84 83 86 87 91 90 84 77 77 73 72 65 57 49 41 41 45 49 52
43 46 50 56 61 66 68 72 77 81 85 87 85 85 86 90 90 89 81 62 70 69 70 62 50 41 38 41 45 48 52 55
48 53 58 63 65 69 73 76 81 84 85 87 86 87 89 87 84 79 55 63 67 70 71 48 40 38 42 44 47 51 53 51
53 58 62 65 70 73 77 81 84 85 87 87 88 89 86 79 73 50 57 71 61 58 62 48 42 42 44 47 51 52 49 47
57 61 65 69 73 78 83 85 87 87 87 87 89 89 83 72 67 51 59 66 54 60 48 46 45 43 47 51 51 47 46 44
62 65 70 74 79 82 85 85 85 87 87 89 89 85 73 67 59 48 51 50 51 43 42 44 43 46 50 51 47 43 42 41

GFSFLT1_500_spd_006.txt.gz
Wind_Speed
22 19 23 26 28 29 30 37 41 41 44 44 42 39 38 44 48 49 52 50 50 50 51 52 54 56 56 57 59 61 64 65
22 23 26 29 29 33 41 41 41 49 46 40 37 40 42 47 50 49 50 51 52 55 56 59 60 61 63 65 67 69 71 73
25 26 27 26 37 40 42 43 45 44 36 40 43 45 47 47 46 52 55 57 58 60 63 66 68 70 72 73 74 75 77 78
18 23 28 35 39 40 42 43 43 44 45 45 47 45 45 48 52 55 59 61 64 67 69 72 74 76 79 81 82 82 82 82
19 28 35 37 38 39 42 44 45 45 45 44 44 46 48 51 54 58 61 65 69 71 74 77 81 82 84 84 84 84 84 84
29 37 37 37 37 39 39 40 41 43 42 43 45 47 51 54 58 62 66 69 73 76 78 80 81 82 81 80 81 83 85 86
33 35 38 39 42 36 36 39 39 38 41 42 44 48 53 58 62 66 70 72 76 78 82 85 87 83 81 81 81 82 83 84
35 37 41 41 32 29 33 36 39 41 41 43 48 54 59 63 67 72 76 82 85 84 84 84 83 84 84 84 85 86 87 87
42 43 41 35 28 27 27 30 33 39 46 53 58 64 67 72 75 77 82 84 87 87 86 85 85 86 88 89 90 89 86 87
31 35 33 32 31 32 34 37 43 50 56 63 67 70 75 79 81 84 85 86 86 86 89 90 90 89 89 85 79 83 80 76
33 31 30 33 37 39 42 48 53 58 64 69 72 76 80 84 86 88 87 86 85 88 90 90 85 82 69 69 76 76 66 63
34 34 38 41 44 45 49 54 59 64 68 71 75 80 83 85 86 85 84 86 86 88 85 80 76 61 68 72 72 59 50 47
39 41 44 46 47 50 54 59 65 68 70 74 79 84 87 88 89 87 88 89 87 81 73 73 62 62 67 61 63 49 46 45
42 43 47 49 50 54 58 64 67 70 74 79 84 87 90 90 89 89 89 88 82 66 69 63 64 68 63 63 56 51 51 51
43 47 49 50 54 59 64 67 71 76 80 84 86 88 88 89 90 91 89 78 72 68 57 54 65 62 60 54 51 51 52 55
45 48 51 55 59 63 66 70 75 80 83 85 88 89 89 91 93 91 80 72 66 55 49 58 57 52 47 47 48 50 55 56
46 51 56 60 62 64 69 74 78 82 85 87 90 90 91 94 92 84 73 65 58 46 51 51 42 42 45 46 48 54 53 49
50 55 60 62 64 68 73 76 80 84 86 87 89 89 93 93 83 71 60 54 41 35 35 33 35 41 43 44 51 50 48 43
53 58 60 63 67 72 75 78 81 83 84 87 89 93 92 83 69 58 50 41 32 28 27 31 37 40 42 48 50 48 42 39

GFSFLT1_500_spd_009.txt.gz
Wind_Speed
15 14 15 20 25 24 25 27 35 35 38 40 43 41 34 33 42 48 48 45 47 48 49 50 51 52 54 55 56 58 61 62
20 19 20 21 21 26 33 36 39 40 43 42 42 37 43 41 47 43 46 48 48 49 52 56 59 61 62 63 64 65 66 68
21 18 21 21 27 29 33 42 45 45 44 43 42 42 45 47 47 48 49 51 54 57 60 64 67 69 70 72 74 75 75 77
18 18 22 30 33 35 36 37 41 45 45 44 45 46 47 47 48 49 52 56 60 64 67 70 73 76 77 78 81 82 83 82
22 29 31 35 38 41 43 43 48 48 46 45 45 45 45 47 50 54 58 63 66 70 73 76 78 81 81 82 84 86 85 85
31 35 36 38 38 41 45 47 43 40 40 40 41 43 46 50 54 59 62 66 69 72 76 79 82 84 87 88 87 85 85 85
32 32 39 35 41 44 45 42 41 39 39 40 41 44 49 53 58 62 66 68 72 79 86 86 88 90 89 89 89 90 90 91
32 29 41 44 41 38 36 35 33 35 38 41 44 49 54 60 64 69 74 79 84 86 88 90 90 90 90 90 91 92 94 92
34 44 44 36 36 32 30 33 37 41 44 47 52 58 65 68 72 76 80 83 87 90 92 92 93 95 98 97 98 97 90 87
38 33 33 38 32 31 36 39 42 45 49 55 60 65 67 71 75 80 84 88 91 93 95 95 96 96 99 96 90 84 85 80
32 35 37 36 37 42 45 48 51 53 57 61 65 68 72 77 81 84 87 90 94 94 95 94 96 95 87 79 80 74 74 68
36 40 42 44 46 49 52 53 55 58 62 66 68 72 77 81 85 88 91 93 94 94 95 96 91 83 76 72 74 71 62 68
38 42 45 47 50 50 53 55 59 63 66 68 71 76 80 84 87 90 91 93 94 96 98 88 77 73 67 63 58 55 60 71
39 43 46 47 48 51 54 59 62 65 67 70 75 79 81 85 89 91 93 95 96 98 90 77 67 61 57 55 61 64 54 50
39 42 45 48 50 53 58 62 65 66 70 74 77 81 84 89 91 92 96 98 101 94 75 61 56 51 46 49 42 42 48 49
42 44 47 49 53 57 60 63 64 69 74 77 81 85 88 89 91 94 96 98 91 73 56 50 45 38 36 37 43 46 47 53
46 48 50 53 55 58 61 63 68 72 75 80 85 87 88 90 94 95 97 89 72 54 44 39 31 28 33 40 44 46 50 52
49 51 53 54 56 59 62 67 71 74 79 84 85 85 89 94 94 94 86 70 53 42 36 32 33 33 36 42 47 46 52 50
52 53 55 55 56 61 65 69 72 78 82 83 83 88 92 92 92 86 72 56 44 37 35 35 35 36 39 43 47 47 53 47

GFSFLT1_500_spd_012.txt.gz
Wind_Speed
11 13 14 16 20 22 20 21 23 28 36 39 38 40 38 33 38 39 44 50 51 49 47 48 51 54 55 57 59 60 61 61
14 18 21 21 21 23 27 28 29 37 42 49 49 46 41 44 45 48 51 50 47 48 50 55 58 61 62 64 67 70 71 72
18 20 20 21 26 30 29 35 41 44 47 49 49 49 48 48 46 45 45 46 47 51 56 61 64 66 68 71 75 78 80 81
19 18 20 24 30 36 36 39 41 42 47 48 43 41 42 42 43 44 45 48 53 59 64 68 70 71 73 77 80 81 84 86
27 21 25 30 32 34 37 38 44 46 46 42 41 41 42 42 44 46 50 55 60 63 65 67 71 76 79 83 84 86 91 92
26 29 32 35 34 37 34 49 48 46 44 44 42 41 43 47 50 53 56 59 63 65 69 74 79 84 86 88 89 93 96 96
27 31 36 41 37 44 48 41 42 43 41 40 42 45 47 49 53 57 62 65 68 73 78 83 88 90 91 93 96 96 96 95
25 27 37 41 41 46 41 41 42 40 41 45 47 50 53 56 60 64 67 69 75 80 83 86 89 93 95 96 95 101 105 99
23 30 34 36 40 41 42 42 41 44 49 52 53 53 55 59 63 66 69 74 79 82 86 90 95 96 98 99 99 99 92 88
24 28 33 37 40 40 43 43 43 46 49 49 51 55 59 62 64 68 72 77 81 86 90 95 99 101 100 101 102 95 87 74
27 30 32 34 37 40 42 46 50 52 53 54 57 60 63 64 69 73 77 83 87 92 95 99 100 101 102 100 90 73 70 66
29 32 34 36 39 43 46 49 53 56 57 60 62 64 66 69 74 77 82 88 91 93 95 97 99 100 95 82 68 60 57 52
35 38 40 42 45 48 50 53 55 58 61 63 65 67 69 73 76 81 86 88 91 95 97 98 98 92 77 62 54 45 35 36
39 41 43 44 46 49 52 54 57 63 63 64 65 68 72 75 79 84 86 90 93 98 100 97 89 74 56 47 36 30 34 40
42 44 45 47 49 51 55 59 60 61 62 64 67 72 75 78 83 85 88 91 97 99 94 86 71 54 41 33 34 35 38 44
44 46 48 50 51 54 59 59 59 59 62 66 71 74 79 81 83 87 90 95 96 92 85 70 55 43 36 35 37 39 41 46
47 50 52 51 54 57 58 58 58 60 64 69 74 78 80 82 86 88 95 97 92 85 71 56 44 37 34 36 39 40 44 48
50 54 55 55 56 58 58 57 60 63 69 73 76 79 81 85 89 95 97 90 83 72 58 46 38 34 37 38 39 41 44 49
53 55 55 54 57 58 57 60 64 69 73 75 79 81 84 87 93 94 90 83 72 61 47 38 34 34 38 37 38 40 45 47

GFSFLT1_500_spd_015.txt.gz
Wind_Speed
10 9 11 13 16 17 18 19 22 21 28 37 40 35 36 43 44 45 46 46 47 46 46 45 46 46 50 54 57 58 60 62
13 14 16 18 19 20 22 23 28 34 38 39 42 44 48 49 46 44 43 44 44 45 46 47 49 53 59 62 64 66 68 70
15 17 18 20 21 22 27 32 35 37 40 43 46 49 48 46 43 41 42 43 44 46 48 52 57 62 65 64 67 69 72 74
17 19 21 23 25 28 33 35 33 36 40 44 46 45 43 41 41 42 44 47 50 53 56 60 63 63 63 67 70 73 77 81
14 19 19 22 28 32 33 36 38 43 48 47 43 46 45 44 46 49 51 53 55 57 60 62 62 66 70 74 76 82 86 89
20 23 24 27 27 36 36 39 46 47 43 43 46 45 44 47 49 51 53 55 57 60 61 63 68 72 76 80 84 88 92 96
22 24 27 25 33 36 38 38 41 43 43 44 44 44 48 52 55 55 56 58 60 61 65 70 74 77 82 87 91 93 95 100
21 23 25 27 30 32 34 36 40 42 45 49 50 51 53 53 55 57 59 61 64 67 71 75 79 83 88 91 93 97 101 104
16 19 22 26 29 32 35 37 40 44 47 49 49 51 53 56 57 59 61 64 67 71 75 78 83 87 90 94 99 103 103 100
17 20 24 28 31 34 36 39 43 46 48 50 54 57 57 58 61 62 64 67 71 75 80 84 86 90 96 99 102 101 95 83
19 22 25 28 31 34 37 41 44 46 50 54 58 57 60 63 63 63 66 71 76 80 83 85 89 94 98 103 99 91 78 65
24 27 29 32 35 39 43 46 47 51 53 55 58 61 61 61 61 66 70 75 80 83 86 89 94 97 101 97 86 72 56 44
28 31 34 37 40 44 47 48 50 53 53 58 63 62 60 61 65 70 75 79 83 86 89 92 98 100 93 82 67 51 40 35
34 36 38 40 43 47 49 51 53 52 57 60 61 60 61 64 70 74 78 82 85 87 90 96 98 92 79 66 50 39 36 37
38 39 41 43 45 49 51 52 51 55 59 61 60 61 64 69 73 76 81 84 85 89 96 99 91 77 65 51 40 35 36 38
42 42 44 47 50 52 53 53 55 57 60 60 60 63 67 71 75 78 80 84 90 96 98 90 76 65 52 42 34 34 37 37
46 46 48 51 54 53 55 56 57 59 60 60 63 66 70 74 76 79 83 89 94 95 89 75 65 54 42 36 33 36 37 36
50 50 52 55 55 56 57 58 59 60 60 63 66 69 73 76 79 81 88 92 94 87 74 65 55 43 36 34 34 35 34 36
52 53 55 57 57 58 59 59 60 60 62 65 69 72 75 77 80 87 91 91 84 73 65 56 45 36 33 32 33 33 35 37

GFSFLT1_500_spd_018.txt.gz
Wind_Speed
11 9 9 11 15 17 20 21 21 21 25 32 37 40 42 42 43 43 42 41 41 42 44 46 48 49 50 51 51 54 57 59
14 14 14 17 19 21 22 22 23 30 32 36 38 41 43 47 47 42 42 40 41 42 45 47 50 53 55 57 59 62 63 63
15 16 19 20 22 21 20 23 28 33 36 40 42 45 48 46 45 44 43 43 46 49 52 55 56 58 60 61 62 61 63 67
16 16 18 18 23 23 22 28 33 35 39 40 43 49 44 44 47 48 48 49 51 53 55 56 56 58 59 61 63 66 69 72
14 16 18 20 22 24 28 30 30 33 37 38 40 42 45 48 50 49 51 53 54 55 56 57 58 60 62 65 68 72 76 81
17 17 21 23 22 22 22 22 25 29 32 36 39 42 45 48 51 53 55 56 56 58 58 59 61 63 66 71 75 78 82 84
17 18 18 16 17 20 22 25 27 31 34 38 41 44 47 50 52 55 57 58 58 60 60 62 64 68 72 76 81 85 88 91
14 14 14 15 19 21 24 26 30 35 39 43 46 48 50 52 54 57 58 59 61 61 62 65 70 75 79 83 86 89 90 94
12 14 15 18 21 23 26 29 33 37 41 45 48 49 52 53 56 58 61 63 62 62 64 69 75 78 82 86 88 90 95 100
13 16 20 23 26 28 30 33 37 39 42 44 41 55 55 55 58 60 66 63 62 63 68 73 77 81 84 86 91 96 99 100
17 21 24 27 30 32 34 37 40 43 45 40 50 55 56 57 62 64 63 62 64 68 72 76 80 83 87 92 97 101 98 82
23 26 29 32 34 36 38 41 45 47 49 51 55 58 58 59 62 63 62 64 68 72 76 80 82 85 91 97 99 92 77 67
30 33 35 38 40 41 42 45 48 52 53 55 58 59 59 61 63 62 65 69 73 76 79 81 84 92 96 96 85 72 64 54
36 38 41 44 45 46 48 49 52 54 55 59 61 60 60 63 63 65 69 73 76 78 81 83 91 96 90 81 70 62 52 44
41 43 46 48 50 51 53 54 53 55 58 61 62 61 62 63 64 68 72 75 78 81 84 90 97 88 77 69 62 52 43 39
45 47 49 52 53 54 55 56 56 58 59 61 62 62 62 64 67 71 75 78 82 84 88 97 89 78 69 63 54 44 38 36
49 50 53 54 55 56 57 56 57 58 62 62 62 62 62 67 69 75 78 81 87 87 94 90 80 71 63 54 44 39 36 35
51 52 54 55 57 56 55 56 57 62 62 62 60 61 65 68 72 77 80 85 89 91 91 83 73 65 56 45 39 36 35 36
52 53 55 56 56 54 55 57 60 60 61 60 61 65 67 68 73 76 82 88 90 95 88 76 68 57 48 40 36 35 33 33

GFSFLT1_500_spd_021.txt.gz
Wind_Speed
7 6 8 11 13 16 19 20 22 24 24 27 32 38 39 41 42 45 46 43 42 44 41 41 44 47 50 53 55 56 56 56
12 13 14 15 19 22 24 24 25 22 27 32 36 38 40 40 43 45 45 46 46 47 50 51 52 52 55 56 57 57 58 59
14 14 16 18 22 26 26 27 26 28 30 35 34 35 36 38 40 43 44 46 48 50 50 53 55 53 54 57 59 58 58 58
16 18 19 19 22 26 25 26 27 30 31 29 29 31 35 38 40 43 45 47 50 51 53 54 55 57 59 59 59 57 60 62
20 22 21 23 26 27 26 25 24 22 25 27 30 33 38 40 44 47 50 50 51 53 57 57 59 60 59 58 60 61 66 70
23 23 23 26 27 20 18 19 20 23 26 29 32 36 40 43 46 50 53 55 56 58 60 61 62 63 61 62 63 68 72 76
26 25 26 23 17 17 18 20 22 25 28 32 35 39 43 46 49 50 53 58 60 60 61 65 66 64 64 67 71 75 78 82
26 24 19 16 15 19 21 23 26 30 33 36 39 43 46 50 45 55 58 64 62 61 65 66 66 67 70 72 76 80 82 84
18 17 16 17 20 23 25 28 32 35 38 41 45 47 49 49 50 58 62 64 63 63 65 66 66 69 73 76 80 84 87 90
16 18 20 23 27 29 32 35 37 40 43 46 48 50 52 53 55 59 62 63 63 64 66 67 68 71 75 80 84 85 92 97
21 23 26 30 33 35 38 41 43 46 48 50 52 54 55 56 59 61 63 63 63 65 66 68 71 76 79 83 84 89 97 103
26 29 32 36 38 41 44 46 48 51 53 57 58 58 58 59 60 63 64 63 64 65 67 70 74 78 82 84 90 92 103 90
31 33 37 41 43 45 48 50 52 53 56 58 58 59 59 60 63 63 64 64 64 66 68 72 76 80 87 89 95 99 93 76
37 39 42 45 47 49 51 52 54 56 58 59 59 58 58 61 64 64 64 64 66 68 70 74 78 82 89 95 102 95 77 68
43 45 46 48 51 53 54 54 56 58 59 59 58 58 60 62 64 64 65 66 70 72 74 75 78 86 93 98 102 83 69 60
47 49 51 52 54 55 56 56 58 58 58 57 57 58 59 62 64 64 66 69 73 75 78 76 84 91 93 98 89 75 63 51
51 52 53 54 55 55 55 56 57 55 56 56 58 58 60 64 65 66 68 72 75 79 78 82 89 96 93 87 79 66 53 45
53 53 53 53 53 54 55 54 53 54 56 58 59 61 62 66 68 69 71 75 76 78 79 84 92 96 84 80 69 57 47 42
51 51 51 52 52 52 51 52 54 57 58 59 57 57 64 70 74 75 76 78 76 77 82 87 91 92 79 68 59 48 43 39

GFSFLT1_500_spd_024.txt.gz
Wind_Speed
3 5 8 11 12 14 20 19 20 23 25 25 23 29 33 33 29 30 32 35 38 41 42 43 43 46 49 52 53 54 53 54
6 8 11 15 16 16 22 21 21 22 25 26 27 30 29 26 29 33 37 41 44 45 46 48 50 51 52 53 54 56 55 54
8 11 13 17 21 20 22 24 23 26 25 26 29 25 26 29 33 35 39 42 44 45 46 48 52 54 55 56 58 59 57 56
12 13 17 21 23 24 25 27 28 26 22 21 23 24 28 30 34 39 42 45 48 48 49 51 57 59 59 59 60 60 58 57
16 20 23 23 25 27 28 26 20 20 21 24 26 29 33 36 40 43 46 48 51 50 51 57 61 60 60 60 62 60 60 62
22 24 26 26 29 29 21 18 18 21 24 26 31 35 39 42 45 48 50 54 55 54 58 61 64 64 64 62 62 61 63 67
30 30 30 29 27 21 18 18 21 24 28 32 36 40 44 46 49 50 52 54 55 55 58 61 64 65 63 63 62 64 67 69
33 31 28 24 19 18 20 23 26 30 34 37 41 44 47 50 52 54 56 56 56 56 59 63 64 64 63 62 64 68 70 74
24 19 17 18 20 22 26 30 33 36 40 43 46 49 51 53 56 58 59 60 59 61 63 64 64 63 62 64 67 70 72 76
16 18 19 21 24 28 33 36 38 42 45 48 51 53 55 57 58 59 59 58 57 61 64 65 63 63 64 66 69 73 77 80
21 23 24 27 30 34 38 42 44 46 49 52 54 56 57 59 60 60 57 58 60 63 65 64 63 64 67 70 72 78 84 88
24 27 30 33 35 38 42 46 48 48 51 54 56 58 59 60 60 59 57 58 61 63 64 64 66 67 70 72 76 80 85 87
31 32 34 38 42 44 45 48 50 51 54 56 57 59 60 60 59 57 57 60 62 62 65 67 69 71 74 78 81 82 85 90
39 40 40 41 47 48 50 51 53 53 55 56 58 59 58 59 59 58 61 61 60 65 69 71 73 74 80 84 87 84 89 91
42 48 50 49 51 52 53 54 53 54 55 56 57 56 56 58 60 61 62 62 65 69 74 76 77 78 81 83 86 84 91 88
47 50 55 57 55 55 53 53 53 53 54 54 53 56 58 59 60 60 61 64 68 74 81 85 89 87 82 85 86 84 82 73
49 49 53 54 55 56 54 52 52 53 51 52 57 58 61 59 59 64 67 72 73 77 80 86 92 87 81 83 81 77 69 63
50 51 52 53 55 55 52 51 50 51 52 56 58 57 59 61 67 71 77 77 75 80 86 84 82 75 77 77 77 73 59 56
53 53 53 52 51 51 49 48 50 55 56 57 56 57 61 64 69 77 82 85 85 83 77 74 72 77 76 73 68 61 53 49

GFSFLT1_500_spd_030.txt.gz
Wind_Speed
6 3 4 4 5 4 6 9 9 7 11 11 13 13 14 14 12 13 18 22 25 29 32 34 37 39 41 43 43 44 45 45
7 6 3 7 11 13 15 12 10 11 16 14 12 10 9 12 15 20 24 28 31 34 37 40 43 45 47 48 50 50 49 50
5 4 5 6 7 12 13 13 12 14 12 9 10 12 14 17 22 26 30 33 36 39 43 46 48 50 51 53 54 54 55 53
4 3 6 6 9 11 13 10 13 13 11 12 14 16 20 24 28 32 35 38 41 45 47 50 52 53 55 56 55 55 54 53
6 7 8 11 12 12 12 11 10 11 12 16 18 22 26 29 33 37 40 43 45 47 50 52 55 56 57 56 55 54 55 55
5 3 8 14 14 13 14 9 9 11 15 20 25 28 32 35 38 41 44 47 49 50 53 56 56 57 57 57 56 55 57 59
7 8 9 11 13 10 10 12 14 17 21 26 30 34 37 40 43 46 48 51 54 56 56 56 58 58 57 56 54 57 60 58
10 7 6 8 9 12 12 14 18 23 27 31 35 39 43 47 49 52 54 56 57 58 57 58 59 59 57 58 60 60 59 62
3 2 4 9 13 14 17 19 24 29 32 36 40 45 48 51 53 55 56 59 57 59 60 61 61 60 59 62 61 60 63 65
4 7 10 15 17 19 20 24 28 34 39 42 46 49 51 52 53 55 57 56 58 59 60 59 61 61 62 62 62 64 69 72
9 11 14 17 22 25 27 31 35 39 42 45 48 49 51 52 54 56 55 57 58 58 57 58 62 61 60 62 65 67 70 74
13 15 18 21 26 32 35 38 41 43 42 42 45 48 49 52 55 56 55 55 55 55 59 61 60 63 66 67 71 75 80 82
18 20 22 27 31 34 38 41 40 40 41 42 45 49 51 54 57 53 52 51 55 59 60 60 62 65 69 73 74 77 80 87
24 27 30 30 31 33 33 33 38 41 45 46 46 52 54 56 52 50 52 56 58 59 60 63 66 72 74 79 83 81 80 86
28 32 32 34 37 38 43 42 43 37 41 46 51 54 54 51 52 54 56 58 59 63 67 69 73 77 82 85 89 93 84 70
30 32 37 39 42 46 47 47 40 43 44 51 52 53 51 52 54 55 57 60 64 67 71 76 80 80 81 86 85 76 73 75
34 38 43 46 48 48 45 46 43 43 49 51 50 51 53 53 54 59 60 64 69 71 74 77 80 80 85 81 77 73 79 73
41 42 43 45 46 47 47 47 49 49 49 49 50 52 52 55 58 62 67 69 67 70 74 75 77 80 80 76 76 73 69 64
42 43 45 45 45 46 48 48 42 45 47 49 51 53 57 59 62 66 66 65 74 73 79 85 80 75 78 75 67 62 56 56

GFSFLT1_500_spd_033.txt.gz
Wind_Speed
13 13 12 10 8 7 5 1 2 3 3 6 8 8 8 8 8 10 12 18 22 26 30 32 35 38 40 42 44 46 46 47
11 11 10 8 6 3 1 2 2 2 5 7 4 3 4 8 11 14 19 24 28 31 34 35 38 42 44 46 47 48 49 51
5 8 7 4 4 2 2 1 3 3 5 4 5 6 9 12 16 21 25 28 32 34 37 40 44 47 49 49 48 49 51 51
10 7 4 1 4 5 6 2 4 6 7 6 8 13 15 18 23 27 30 33 37 39 42 44 47 49 49 49 50 51 53 51
6 3 1 2 4 7 9 9 8 8 9 11 14 17 20 26 30 33 36 39 43 46 47 49 49 49 50 49 52 55 53 52
8 5 6 8 9 8 9 8 12 11 12 15 18 23 28 33 35 37 40 43 46 48 50 51 54 51 50 53 52 51 54 55
14 9 10 10 10 10 6 8 12 14 16 20 23 28 35 38 39 42 43 47 49 50 52 53 51 53 55 58 52 60 62 61
7 8 9 10 8 8 8 9 15 17 20 25 29 35 39 43 43 45 48 50 49 52 52 51 54 54 56 56 57 61 64 63
8 8 6 8 9 12 15 14 17 23 26 30 34 39 45 44 43 46 50 51 52 52 52 47 60 58 57 58 61 63 63 67
4 5 8 11 12 14 14 18 25 29 33 36 41 45 44 46 48 51 52 52 52 52 54 56 57 58 60 62 63 65 69 72
8 10 13 15 16 19 21 24 28 33 37 41 44 43 45 49 51 52 50 52 54 54 55 56 58 61 62 63 65 69 72 75
14 15 17 18 19 23 27 30 34 38 41 41 40 45 46 52 53 52 54 55 54 54 55 58 60 61 63 67 71 73 77 81
18 20 21 20 23 28 32 33 36 39 40 44 42 46 49 53 53 55 59 56 54 55 58 59 61 64 68 73 75 76 79 83
21 22 23 26 30 33 33 34 36 37 37 39 43 44 48 53 56 57 53 52 54 56 56 60 64 68 72 75 78 81 89 93
19 23 28 29 31 33 34 37 35 39 40 41 44 45 52 52 52 51 51 53 53 56 58 62 67 72 75 76 80 88 92 94
24 25 25 28 32 34 35 36 37 38 45 49 46 50 52 52 52 52 53 53 56 60 65 65 73 76 77 81 89 88 93 88
28 28 31 33 35 39 41 44 46 47 48 51 52 50 50 51 53 54 54 56 62 67 66 75 77 74 82 85 86 88 88 83
30 32 36 38 42 45 47 47 47 48 51 53 52 52 54 55 55 55 59 61 66 71 75 75 78 80 83 86 85 83 76 69
34 36 39 42 46 47 46 46 49 51 52 52 51 54 54 52 55 58 63 61 69 69 71 72 75 81 82 82 79 73 65 64

GFSFLT1_500_spd_036.txt.gz
Wind_Speed
17 16 15 14 13 11 7 5 7 7 7 8 7 8 9 9 7 8 10 13 16 20 24 29 33 37 40 43 46 48 48 48
14 13 13 11 11 9 8 7 5 7 8 9 8 8 8 7 8 11 14 18 22 25 30 34 37 41 44 47 47 49 49 48
10 10 10 11 11 9 8 7 8 9 11 11 9 9 9 10 13 15 18 24 27 31 34 37 40 43 45 46 48 48 46 46
14 15 12 10 7 8 7 9 13 14 14 14 12 13 14 16 17 19 24 29 32 35 37 40 43 43 45 45 45 47 44 50
11 11 10 9 9 9 9 12 15 14 13 15 14 16 18 19 20 24 30 35 38 39 39 43 42 44 45 45 45 44 48 53
12 10 8 7 11 12 12 12 14 15 15 14 14 17 22 24 27 30 37 40 41 43 43 45 46 47 49 45 51 53 53 54
18 18 15 13 15 16 15 11 12 12 11 13 15 19 24 26 30 35 42 41 42 44 46 46 46 44 47 52 48 58 55 57
23 27 23 20 19 16 13 13 18 12 14 17 20 24 28 31 31 39 40 39 40 47 49 48 50 44 55 52 56 56 59 61
18 25 27 18 15 13 15 18 19 13 17 22 26 31 33 34 35 38 38 41 43 52 50 50 40 54 53 55 57 59 61 64
10 11 12 13 11 12 15 19 16 17 22 26 31 35 37 37 37 35 39 47 52 55 54 56 54 52 54 57 58 60 65 69
11 11 12 13 12 17 17 18 20 24 27 32 36 39 39 38 38 41 47 49 56 56 57 60 55 54 55 57 62 66 70 73
17 15 17 17 18 21 24 24 25 27 32 35 37 40 40 37 38 40 52 56 57 61 62 58 55 54 56 60 65 70 73 76
20 19 21 23 24 27 30 29 30 34 37 39 41 41 36 39 49 53 57 57 60 60 59 56 55 56 58 64 70 74 77 80
23 23 24 26 29 30 30 32 34 36 39 40 38 39 46 52 52 56 58 57 59 57 56 58 57 60 64 72 75 77 80 77
19 21 25 28 30 31 32 32 34 37 39 38 43 46 48 51 54 57 58 57 57 60 59 57 59 60 68 74 80 78 81 82
22 25 28 30 30 29 30 33 35 38 38 41 42 45 49 53 56 57 55 56 58 58 57 61 61 62 70 78 80 81 76 77
27 29 30 30 28 29 33 36 39 41 43 43 45 49 52 54 56 53 58 59 58 58 56 60 67 76 79 80 82 79 76 79
30 31 31 29 31 34 37 40 43 46 47 47 49 51 53 54 54 55 59 57 56 59 65 66 74 78 77 78 80 77 78 79
29 29 29 31 34 38 41 44 46 48 48 49 50 52 55 56 57 57 56 56 53 56 71 73 75 75 75 75 77 78 78 80

GFSFLT1_500_spd_039.txt.gz
Wind_Speed
16 16 15 15 14 13 11 10 10 10 11 12 12 14 15 15 13 11 11 12 11 14 18 23 27 29 33 36 39 41 44 46
15 14 14 15 13 11 9 9 10 12 12 12 10 12 14 14 12 12 10 11 14 19 24 28 31 34 36 40 43 44 46 47
12 13 13 13 12 12 12 14 14 15 14 12 10 11 11 10 11 12 13 15 19 24 29 32 34 37 39 43 45 46 46 48
9 10 13 13 12 11 10 11 14 15 13 12 11 12 11 13 15 16 19 22 25 27 32 34 36 38 41 45 45 46 48 46
10 12 13 12 11 12 13 13 14 16 15 15 15 14 15 18 18 21 25 29 30 34 37 36 37 42 45 47 47 48 49 47
14 14 14 14 15 15 15 16 16 20 20 17 16 15 16 20 22 23 27 31 34 38 41 41 41 45 46 48 51 46 50 64
19 20 20 19 19 18 17 18 17 21 19 21 20 17 18 20 23 26 30 31 34 38 40 43 46 48 54 52 50 54 60 55
24 25 25 25 24 24 19 18 22 23 26 24 19 19 21 22 25 28 30 34 35 37 40 44 50 52 57 52 54 53 58 58
24 27 30 31 28 25 22 19 22 23 18 19 18 21 23 27 29 30 30 35 37 38 40 49 50 57 57 57 57 56 58 57
18 22 26 27 28 24 21 19 22 20 19 19 22 25 28 31 32 30 33 35 37 40 43 49 56 60 58 60 59 59 60 60
15 14 14 16 19 19 20 22 22 23 25 26 27 29 31 33 33 37 36 36 40 43 49 59 62 60 61 59 58 58 61 63
18 19 20 19 19 20 21 23 25 29 32 30 32 33 35 36 37 36 39 42 42 54 57 60 57 56 56 61 60 62 65 66
22 22 22 23 23 24 26 26 29 32 32 34 34 37 38 38 36 40 41 48 54 58 58 57 56 58 62 62 63 66 68 72
24 26 27 27 27 28 28 29 31 30 33 34 35 37 40 41 40 45 49 51 53 55 56 57 56 59 61 62 65 64 69 73
23 26 26 27 27 28 30 32 33 33 34 35 37 37 39 41 41 47 50 53 55 57 57 57 61 61 58 68 68 70 75 81
22 24 25 26 27 30 31 32 32 33 34 36 38 38 38 40 45 49 51 54 57 57 58 61 63 58 63 74 74 71 83 86
26 26 27 29 30 30 32 32 32 33 34 37 40 43 45 48 50 52 54 55 56 57 56 57 56 61 62 70 70 78 83 84
25 27 28 29 30 30 30 31 32 34 37 40 43 46 48 49 51 53 55 56 58 59 51 56 65 66 69 73 76 78 79 77
26 26 28 29 29 29 30 32 35 37 40 43 45 47 49 51 52 54 58 56 57 57 57 60 65 69 73 76 77 76 76 77

GFSFLT1_500_spd_042.txt.gz
Wind_Speed
10 15 15 15 14 12 11 10 11 13 11 10 8 7 9 12 13 16 15 16 13 11 13 14 18 22 27 31 34 38 40 45
12 12 11 12 12 10 9 8 8 9 10 12 12 12 12 13 15 16 15 14 14 14 15 19 22 27 31 34 36 38 43 46
8 8 7 7 8 8 9 10 10 12 12 9 9 9 13 15 16 15 15 15 16 18 20 24 27 30 34 37 38 42 42 48
8 9 9 11 12 11 10 11 12 14 14 16 11 12 14 15 14 16 18 18 21 24 29 33 34 37 38 39 42 44 47 51
8 9 10 12 13 12 12 13 14 16 16 17 14 13 16 17 18 18 19 22 25 30 32 36 39 39 41 41 44 48 51 54
11 12 13 14 15 15 14 15 15 16 17 20 20 19 18 18 17 19 22 24 27 30 33 36 41 42 44 44 44 51 53 58
15 18 18 17 19 19 18 17 17 20 21 24 24 25 25 22 19 20 24 28 30 30 33 37 42 44 47 47 50 56 58 62
22 20 21 23 23 23 24 21 22 23 25 31 28 31 31 27 23 22 27 30 31 32 37 39 42 45 49 51 54 55 66 61
21 23 24 26 27 28 28 27 25 26 25 26 31 30 19 20 22 26 29 31 32 34 35 40 39 46 49 52 59 66 62 55
18 22 25 27 28 30 30 29 27 26 28 27 24 14 19 24 27 30 31 33 32 34 38 40 45 48 48 59 63 59 54 63
18 20 20 19 20 21 20 21 25 27 28 27 28 28 29 30 31 32 33 34 32 35 44 44 47 52 63 64 61 57 58 59
20 21 21 20 20 20 21 23 25 27 30 31 32 33 32 33 31 34 35 34 33 41 47 50 55 58 59 59 57 58 57 61
26 25 26 26 26 25 25 27 28 29 31 34 35 34 36 36 36 36 36 37 39 40 49 54 55 55 56 56 58 62 59 61
24 26 28 31 32 31 31 30 31 31 33 34 35 37 38 39 39 39 42 43 46 48 50 51 55 56 56 57 58 54 54 63
23 24 28 31 33 33 33 31 30 31 33 35 37 37 38 39 40 40 42 44 47 49 51 52 54 53 52 62 53 58 65 64
23 26 28 28 30 29 28 29 30 32 34 35 36 37 38 38 40 42 44 46 49 52 55 57 58 54 59 65 62 64 68 73
24 25 27 27 28 29 30 31 32 33 33 34 35 36 37 40 42 45 47 50 52 55 56 58 60 60 61 62 63 65 69 74
26 28 27 27 28 29 31 32 33 33 33 34 36 38 40 43 45 47 50 53 55 57 59 60 60 62 62 63 65 68 71 74
24 25 27 28 29 29 30 31 31 32 33 35 37 40 43 45 48 50 52 54 57 58 59 60 61 61 61 63 65 67 69 72

GFSFLT1_500_spd_045.txt.gz
Wind_Speed
14 15 12 15 15 15 15 15 16 15 16 14 14 13 11 11 14 15 15 14 14 12 12 14 15 18 22 23 25 30 32 34
7 8 10 11 9 10 8 9 9 9 8 7 6 6 10 13 14 14 15 14 15 14 14 15 20 23 25 27 28 32 35 36
3 4 4 5 6 5 3 3 4 5 5 3 4 7 9 13 15 16 16 16 14 16 17 20 24 28 30 33 38 40 38 38
3 2 2 2 4 5 6 5 5 6 7 10 11 12 12 13 13 15 14 15 16 19 21 25 29 35 37 39 39 42 44 44
4 5 6 7 8 8 7 7 7 8 10 14 15 15 13 15 16 16 16 18 21 23 27 30 33 36 38 39 39 42 45 47
7 9 9 10 11 12 11 12 13 13 13 15 16 16 20 19 21 23 23 23 23 25 27 31 35 37 38 41 43 44 49 53
12 13 13 13 14 16 16 17 17 16 16 18 20 25 24 23 25 25 25 24 24 25 28 31 35 38 40 43 45 45 50 52
18 17 17 16 19 21 21 21 22 21 21 21 22 18 27 40 34 34 30 28 27 26 29 35 36 37 39 43 45 48 54 60
20 18 18 20 19 20 21 23 25 23 27 26 19 19 24 27 16 36 25 26 27 30 32 37 37 37 38 43 48 53 55 59
18 18 18 19 22 23 23 26 26 23 20 31 23 22 23 25 26 26 27 30 31 33 35 38 37 38 43 50 53 54 59 63
21 19 19 20 21 23 22 23 22 21 21 25 26 27 27 29 31 30 33 31 33 36 38 37 39 41 49 47 51 60 63 66
24 23 22 22 24 24 24 24 24 24 21 27 29 31 32 33 35 34 36 35 38 39 40 42 44 44 49 53 59 60 61 65
27 27 27 27 28 29 30 29 28 28 29 29 33 35 35 35 36 38 39 40 40 41 43 44 45 49 51 58 60 59 57 60
25 28 29 30 31 33 34 33 32 32 34 36 35 35 36 38 39 39 39 41 42 42 43 46 49 51 54 56 59 57 57 61
24 26 29 31 34 36 37 38 38 38 39 37 36 35 37 39 38 39 39 41 43 44 47 49 52 55 57 58 61 64 64 64
25 27 28 31 33 33 33 32 33 33 34 35 35 37 38 37 38 40 41 42 44 47 50 53 55 58 59 60 62 65 66 64
27 29 29 29 32 32 29 29 30 32 34 34 36 37 36 37 38 39 41 44 47 50 53 55 58 60 61 63 65 66 65 65
33 32 31 30 31 31 31 30 31 32 34 35 35 34 35 37 39 41 45 48 50 53 55 58 60 62 62 64 65 66 66 67
34 33 32 31 31 32 32 32 33 34 35 34 34 35 37 39 42 45 48 51 53 55 58 60 61 62 64 66 66 67 68 70

GFSFLT1_500_spd_048.txt.gz
Wind_Speed
17 18 17 15 14 12 15 12 13 18 17 22 18 15 15 12 9 7 7 7 7 9 10 12 13 16 19 21 21 24 25 27
11 11 9 10 14 16 16 15 13 15 14 12 11 8 5 4 3 5 7 8 12 14 15 14 17 18 20 23 26 28 32 34
9 7 8 7 7 9 10 11 9 9 8 8 7 4 3 2 4 8 10 14 17 17 18 17 18 21 24 27 32 34 37 36
4 2 4 3 5 7 8 8 9 8 7 7 6 7 8 9 9 10 14 16 16 17 17 20 22 27 25 31 35 35 36 36
3 1 1 3 3 3 5 7 8 8 8 7 8 10 10 12 14 15 15 16 19 19 22 25 25 28 31 31 34 34 37 39
6 8 8 7 5 4 5 5 7 8 10 10 11 10 10 12 16 18 20 26 25 24 25 28 29 28 30 31 35 37 41 44
10 10 10 9 9 9 10 10 11 11 12 12 13 12 12 14 17 17 29 34 34 28 29 25 29 30 30 34 37 38 39 42
15 14 11 9 9 10 12 13 14 14 12 15 17 11 24 18 18 23 22 30 31 28 28 28 28 28 32 34 34 38 40 47
15 16 12 12 9 9 11 13 15 16 16 13 16 17 16 16 20 27 27 28 18 20 25 26 28 31 34 37 37 38 42 45
26 22 20 17 14 12 12 14 15 17 16 15 23 22 11 15 19 25 31 25 25 28 25 28 32 37 40 39 42 43 47 48
22 25 23 23 24 19 13 14 20 22 20 17 22 24 17 19 23 27 31 31 29 33 32 34 37 39 42 43 44 46 48 51
22 22 21 20 27 33 24 23 22 25 24 23 27 29 28 27 29 30 32 30 33 33 35 38 39 41 42 44 46 49 51 53
17 21 25 25 25 27 29 30 30 30 29 28 28 31 33 33 35 33 32 33 35 36 38 39 40 42 44 47 50 51 53 56
23 20 24 26 27 30 33 33 34 35 35 34 33 32 37 35 35 34 36 37 37 37 39 40 42 44 46 49 53 55 56 59
23 27 24 26 27 30 34 36 38 40 42 42 39 40 39 36 35 36 38 39 38 40 41 42 45 47 50 51 54 58 60 61
26 29 28 27 28 30 32 35 38 38 38 34 34 35 34 35 37 39 39 39 40 41 42 44 48 50 52 55 58 60 61 61
25 30 35 28 29 29 30 31 35 36 34 32 34 36 36 37 37 38 38 38 39 41 45 48 51 52 54 56 59 61 60 60
29 33 37 36 33 32 32 32 33 33 30 30 32 34 34 34 35 35 36 38 41 45 48 51 53 54 57 58 60 59 59 60
29 32 35 35 35 34 34 33 33 32 33 34 34 34 34 34 35 37 40 43 46 50 53 55 56 57 59 60 59 59 59 61

GFSFLT1_500_spd_051.txt.gz
Wind_Speed
22 21 20 18 12 6 10 9 7 10 10 15 13 15 20 21 20 19 18 17 14 12 10 10 11 15 16 17 17 18 19 22
15 15 16 18 20 20 18 19 22 23 19 16 17 17 14 14 12 9 10 11 12 12 12 13 13 18 18 19 20 23 25 26
10 12 9 11 13 16 18 18 19 15 15 12 15 13 12 9 6 2 3 8 11 13 14 15 16 20 20 21 23 24 28 31
6 7 6 8 11 13 14 14 14 12 11 11 10 11 10 8 6 1 5 9 13 15 14 17 20 20 22 23 26 29 33 32
5 7 6 7 8 8 9 10 11 12 11 10 9 7 5 2 2 2 4 7 10 14 17 18 20 22 24 25 27 29 33 34
7 7 7 7 6 4 4 5 6 5 5 6 6 3 2 4 4 8 11 11 14 21 24 26 25 26 28 29 28 31 33 36
4 5 4 4 4 2 1 1 1 1 2 3 4 6 7 3 10 8 8 8 16 16 32 31 28 31 29 29 34 33 34 30
6 5 4 5 4 7 6 5 6 6 7 8 9 9 9 12 10 12 14 13 18 21 15 29 26 30 28 28 27 28 31 35
5 7 8 7 9 9 10 10 9 7 7 8 8 12 13 12 13 13 15 17 17 17 18 18 18 19 24 25 30 33 34 37
16 15 16 15 13 13 12 11 11 8 7 8 10 13 10 8 14 15 18 19 20 19 18 25 23 25 29 30 32 35 36 39
19 18 16 17 15 16 18 12 14 16 15 10 13 17 16 18 16 18 23 24 26 23 23 28 28 29 30 32 34 35 37 41
22 23 20 17 19 21 19 32 28 18 20 17 21 25 25 20 27 16 26 27 29 28 27 31 31 32 32 34 36 38 41 44
15 20 25 25 23 25 23 23 20 23 25 21 21 29 41 22 21 26 27 29 28 29 32 34 35 35 35 37 39 42 44 47
18 15 17 21 28 28 25 25 26 26 23 18 20 23 30 32 36 34 34 29 30 32 34 34 35 35 37 39 42 45 47 49
22 19 16 19 22 29 31 28 29 30 27 30 32 33 35 36 34 33 30 31 32 36 36 35 36 37 40 43 47 49 51 52
28 23 20 16 20 24 29 32 34 34 34 33 35 36 38 37 34 33 35 35 36 36 36 37 38 40 44 48 51 53 54 56
23 27 24 19 16 21 27 31 33 33 33 33 34 35 34 35 34 35 35 35 36 36 37 38 41 45 49 52 54 55 57 58
20 27 31 29 24 24 28 30 32 32 33 33 33 31 31 31 34 34 36 37 36 37 38 41 45 50 54 56 57 59 60 61
25 27 32 30 29 28 28 31 33 32 31 32 32 31 31 32 33 35 34 35 37 39 42 47 51 55 57 58 59 60 61 62